Location: Tel Aviv
(32.0670°N, 34.7670°E)
Time: 07:55:10
(UTC+02:00)

A-11 Canister half - Pass Details

Date: 16 December 2023
Orbit: 1526 x 1682 km, 47.3° (Epoch: 01 March)

Event Time Altitude Azimuth Distance (km) Brightness Sun altitude
Rises 20:21:21 0° 304° (NW) 4,936 12.2 -46.3°
Reaches altitude 10° 20:24:47 10° 311° (NW) 3,944 11.5 -47.0°
Enters shadow 20:29:33 29° 330° (NNW) 2,733 10.3 -48.0°
